Time,TemperatureF,DewpointF,PressureIn,WindDirection,WindDirectionDegrees,WindSpeedMPH,WindSpeedGustMPH,Humidity,HourlyPrecipIn,Conditions,Clouds,dailyrainin,SoftwareType,DateUTC
2013-05-18 00:02:00,71.0,-99.9,-100.00,North,0,0.0,0.0,-999,0.00,,,-99.99,,2013-05-18 05:02:00,
2013-05-18 00:13:00,71.0,-99.9,-100.00,North,0,0.0,0.0,-999,0.00,,,-99.99,,2013-05-18 05:13:00,
2013-05-18 00:22:00,70.0,-99.9,-100.00,North,0,0.0,0.0,-999,0.00,,,-99.99,,2013-05-18 05:22:00,
2013-05-18 00:32:00,70.0,-99.9,-100.00,North,0,0.0,0.0,-999,0.00,,,-99.99,,2013-05-18 05:32:00,
2013-05-18 00:42:00,70.0,-99.9,-100.00,North,0,0.0,0.0,-999,0.00,,,-99.99,,2013-05-18 05:42:00,
2013-05-18 00:52:00,70.0,-99.9,-100.00,North,0,0.0,0.0,-999,0.00,,,-99.99,,2013-05-18 05:52:00,
2013-05-18 01:02:00,71.0,-99.9,-100.00,North,0,0.0,0.0,-999,0.00,,,-99.99,,2013-05-18 06:02:00,
2013-05-18 01:12:00,71.0,-99.9,-100.00,North,0,0.0,0.0,-999,0.00,,,-99.99,,2013-05-18 06:12:00,
2013-05-18 01:22:00,71.0,-99.9,-100.00,North,0,0.0,0.0,-999,0.00,,,-99.99,,2013-05-18 06:22:00,
2013-05-18 01:32:00,71.0,-99.9,-100.00,North,0,0.0,0.0,-999,0.00,,,-99.99,,2013-05-18 06:32:00,
2013-05-18 01:42:00,71.0,-99.9,-100.00,North,0,0.0,0.0,-999,0.00,,,-99.99,,2013-05-18 06:42:00,
2013-05-18 01:52:00,70.0,-99.9,-100.00,North,0,0.0,0.0,-999,0.00,,,-99.99,,2013-05-18 06:52:00,
2013-05-18 02:01:00,70.0,-99.9,-100.00,North,0,0.0,0.0,-999,0.00,,,-99.99,,2013-05-18 07:01:00,
2013-05-18 02:12:00,69.0,-99.9,-100.00,North,0,0.0,0.0,-999,0.00,,,-99.99,,2013-05-18 07:12:00,
2013-05-18 02:22:00,69.0,-99.9,-100.00,North,0,0.0,0.0,-999,0.00,,,-99.99,,2013-05-18 07:22:00,
2013-05-18 02:32:00,69.0,-99.9,-100.00,North,0,0.0,0.0,-999,0.00,,,-99.99,,2013-05-18 07:32:00,
2013-05-18 02:43:00,70.0,-99.9,-100.00,North,0,0.0,0.0,-999,0.00,,,-99.99,,2013-05-18 07:43:00,
2013-05-18 02:53:00,70.0,-99.9,-100.00,North,0,0.0,0.0,-999,0.00,,,-99.99,,2013-05-18 07:53:00,
2013-05-18 03:02:00,69.0,-99.9,-100.00,North,0,0.0,0.0,-999,0.00,,,-99.99,,2013-05-18 08:02:00,
2013-05-18 03:11:00,69.0,-99.9,-100.00,North,0,0.0,0.0,-999,0.00,,,-99.99,,2013-05-18 08:11:00,
2013-05-18 03:22:00,68.0,-99.9,-100.00,North,0,0.0,0.0,-999,0.00,,,-99.99,,2013-05-18 08:22:00,
2013-05-18 03:33:00,67.0,-99.9,-100.00,North,0,0.0,0.0,-999,0.00,,,-99.99,,2013-05-18 08:33:00,
2013-05-18 03:42:00,67.0,-99.9,-100.00,North,0,0.0,0.0,-999,0.00,,,-99.99,,2013-05-18 08:42:00,
2013-05-18 03:52:00,68.0,-99.9,-100.00,North,0,0.0,0.0,-999,0.00,,,-99.99,,2013-05-18 08:52:00,
2013-05-18 04:02:00,69.0,-99.9,-100.00,North,0,0.0,0.0,-999,0.00,,,-99.99,,2013-05-18 09:02:00,
2013-05-18 04:12:00,69.0,-99.9,-100.00,North,0,0.0,0.0,-999,0.00,,,-99.99,,2013-05-18 09:12:00,
2013-05-18 04:22:00,69.0,-99.9,-100.00,North,0,0.0,0.0,-999,0.00,,,-99.99,,2013-05-18 09:22:00,
2013-05-18 04:33:00,68.0,-99.9,-100.00,North,0,0.0,0.0,-999,0.00,,,-99.99,,2013-05-18 09:33:00,
2013-05-18 04:43:00,68.0,-99.9,-100.00,North,0,0.0,0.0,-999,0.00,,,-99.99,,2013-05-18 09:43:00,
2013-05-18 04:53:00,68.0,-99.9,-100.00,North,0,0.0,0.0,-999,0.00,,,-99.99,,2013-05-18 09:53:00,
2013-05-18 05:03:00,69.0,-99.9,-100.00,North,0,0.0,0.0,-999,0.00,,,-99.99,,2013-05-18 10:03:00,
2013-05-18 05:12:00,69.0,-99.9,-100.00,North,0,0.0,0.0,-999,0.00,,,-99.99,,2013-05-18 10:12:00,
2013-05-18 05:23:00,69.0,-99.9,-100.00,North,0,0.0,0.0,-999,0.00,,,-99.99,,2013-05-18 10:23:00,
2013-05-18 05:33:00,69.0,-99.9,-100.00,North,0,0.0,0.0,-999,0.00,,,-99.99,,2013-05-18 10:33:00,
2013-05-18 05:42:00,69.0,-99.9,-100.00,North,0,0.0,0.0,-999,0.00,,,-99.99,,2013-05-18 10:42:00,
2013-05-18 05:53:00,69.0,-99.9,-100.00,North,0,0.0,0.0,-999,0.00,,,-99.99,,2013-05-18 10:53:00,
2013-05-18 06:03:00,70.0,-99.9,-100.00,North,0,0.0,0.0,-999,0.00,,,-99.99,,2013-05-18 11:03:00,
2013-05-18 06:12:00,70.0,-99.9,-100.00,North,0,0.0,0.0,-999,0.00,,,-99.99,,2013-05-18 11:12:00,
2013-05-18 06:22:00,70.0,-99.9,-100.00,North,0,0.0,0.0,-999,0.00,,,-99.99,,2013-05-18 11:22:00,
2013-05-18 06:33:00,70.0,-99.9,-100.00,North,0,0.0,0.0,-999,0.00,,,-99.99,,2013-05-18 11:33:00,
2013-05-18 06:42:00,70.0,-99.9,-100.00,North,0,0.0,0.0,-999,0.00,,,-99.99,,2013-05-18 11:42:00,
2013-05-18 06:52:00,70.0,-99.9,-100.00,North,0,0.0,0.0,-999,0.00,,,-99.99,,2013-05-18 11:52:00,
2013-05-18 07:02:00,70.0,-99.9,-100.00,North,0,0.0,0.0,-999,0.00,,,-99.99,,2013-05-18 12:02:00,
2013-05-18 07:12:00,71.0,-99.9,-100.00,North,0,0.0,0.0,-999,0.00,,,-99.99,,2013-05-18 12:12:00,
2013-05-18 07:23:00,71.0,-99.9,-100.00,North,0,0.0,0.0,-999,0.00,,,-99.99,,2013-05-18 12:23:00,
2013-05-18 07:33:00,72.0,-99.9,-100.00,ESE,113,4.0,6.0,-999,0.00,,,-99.99,,2013-05-18 12:33:00,
2013-05-18 07:42:00,72.0,-99.9,-100.00,ESE,113,4.0,6.0,-999,0.00,,,-99.99,,2013-05-18 12:42:00,
2013-05-18 07:52:00,73.0,-99.9,-100.00,SE,141,6.0,8.0,-999,0.00,,,-99.99,,2013-05-18 12:52:00,
2013-05-18 08:01:00,73.0,-99.9,-100.00,SE,136,5.0,9.0,-999,0.00,,,-99.99,,2013-05-18 13:01:00,
2013-05-18 08:12:00,73.0,-99.9,-100.00,SE,136,5.0,9.0,-999,0.00,,,-99.99,,2013-05-18 13:12:00,
2013-05-18 08:22:00,75.0,-99.9,-100.00,SE,136,6.0,9.0,-999,0.00,,,-99.99,,2013-05-18 13:22:00,
2013-05-18 08:33:00,75.0,-99.9,-100.00,SE,146,8.0,12.0,-999,0.00,,,-99.99,,2013-05-18 13:33:00,
2013-05-18 08:43:00,75.0,-99.9,-100.00,SE,146,8.0,12.0,-999,0.00,,,-99.99,,2013-05-18 13:43:00,
2013-05-18 08:53:00,76.0,-99.9,-100.00,SE,131,8.0,12.0,-999,0.00,,,-99.99,,2013-05-18 13:53:00,
2013-05-18 09:04:00,77.0,-99.9,-100.00,SE,145,7.0,12.0,-999,0.00,,,-99.99,,2013-05-18 14:04:00,
2013-05-18 09:12:00,77.0,-99.9,-100.00,SE,134,7.0,10.0,-999,0.00,,,-99.99,,2013-05-18 14:12:00,
2013-05-18 09:22:00,77.0,-99.9,-100.00,SE,134,7.0,10.0,-999,0.00,,,-99.99,,2013-05-18 14:22:00,
2013-05-18 09:33:00,77.0,-99.9,-100.00,SE,143,8.0,11.0,-999,0.00,,,-99.99,,2013-05-18 14:33:00,
2013-05-18 09:43:00,77.0,-99.9,-100.00,SE,143,8.0,11.0,-999,0.00,,,-99.99,,2013-05-18 14:43:00,
2013-05-18 09:54:00,77.0,-99.9,-100.00,SSE,156,7.0,10.0,-999,0.00,,,-99.99,,2013-05-18 14:54:00,
2013-05-18 10:03:00,78.0,-99.9,-100.00,SE,136,9.0,13.0,-999,0.00,,,-99.99,,2013-05-18 15:03:00,
2013-05-18 10:13:00,78.0,-99.9,-100.00,SSE,158,9.0,12.0,-999,0.00,,,-99.99,,2013-05-18 15:13:00,
2013-05-18 10:23:00,78.0,-99.9,-100.00,SSE,158,9.0,12.0,-999,0.00,,,-99.99,,2013-05-18 15:23:00,
2013-05-18 10:33:00,78.0,-99.9,-100.00,South,179,8.0,12.0,-999,0.00,,,-99.99,,2013-05-18 15:33:00,
2013-05-18 10:44:00,78.0,-99.9,-100.00,South,179,8.0,12.0,-999,0.00,,,-99.99,,2013-05-18 15:44:00,
2013-05-18 10:54:00,79.0,-99.9,-100.00,SSE,159,7.0,10.0,-999,0.00,,,-99.99,,2013-05-18 15:54:00,
2013-05-18 11:03:00,80.0,-99.9,-100.00,SSE,149,8.0,10.0,-999,0.00,,,-99.99,,2013-05-18 16:03:00,
2013-05-18 11:13:00,80.0,-99.9,-100.00,SSE,149,8.0,10.0,-999,0.00,,,-99.99,,2013-05-18 16:13:00,
2013-05-18 11:22:00,80.0,-99.9,-100.00,SSE,155,9.0,13.0,-999,0.00,,,-99.99,,2013-05-18 16:22:00,
2013-05-18 11:33:00,81.0,-99.9,-100.00,SSE,153,10.0,15.0,-999,0.00,,,-99.99,,2013-05-18 16:33:00,
2013-05-18 11:42:00,81.0,-99.9,-100.00,SSE,153,10.0,15.0,-999,0.00,,,-99.99,,2013-05-18 16:42:00,
2013-05-18 11:53:00,81.0,-99.9,-100.00,SE,143,10.0,15.0,-999,0.00,,,-99.99,,2013-05-18 16:53:00,
2013-05-18 12:03:00,81.0,-99.9,-100.00,SE,138,9.0,13.0,-999,0.00,,,-99.99,,2013-05-18 17:03:00,
2013-05-18 12:12:00,81.0,-99.9,-100.00,SE,138,9.0,13.0,-999,0.00,,,-99.99,,2013-05-18 17:12:00,
2013-05-18 12:22:00,83.0,-99.9,-100.00,SE,142,9.0,15.0,-999,0.00,,,-99.99,,2013-05-18 17:22:00,
2013-05-18 12:33:00,85.0,-99.9,-100.00,SSE,156,9.0,16.0,-999,0.00,,,-99.99,,2013-05-18 17:33:00,
2013-05-18 12:42:00,85.0,-99.9,-100.00,SSE,156,9.0,16.0,-999,0.00,,,-99.99,,2013-05-18 17:42:00,
2013-05-18 12:52:00,82.0,-99.9,-100.00,SSE,148,9.0,18.0,-999,0.00,,,-99.99,,2013-05-18 17:52:00,
2013-05-18 13:02:00,83.0,-99.9,-100.00,SE,146,9.0,13.0,-999,0.00,,,-99.99,,2013-05-18 18:02:00,
2013-05-18 13:12:00,83.0,-99.9,-100.00,SE,146,9.0,13.0,-999,0.00,,,-99.99,,2013-05-18 18:12:00,
2013-05-18 13:22:00,85.0,-99.9,-100.00,SE,136,9.0,12.0,-999,0.00,,,-99.99,,2013-05-18 18:22:00,
2013-05-18 13:32:00,85.0,-99.9,-100.00,South,170,9.0,13.0,-999,0.00,,,-99.99,,2013-05-18 18:32:00,
2013-05-18 13:42:00,84.0,-99.9,-100.00,SSE,158,9.0,14.0,-999,0.00,,,-99.99,,2013-05-18 18:42:00,
2013-05-18 13:52:00,84.0,-99.9,-100.00,SSE,158,9.0,14.0,-999,0.00,,,-99.99,,2013-05-18 18:52:00,
2013-05-18 14:02:00,82.0,-99.9,-100.00,ESE,107,9.0,12.0,-999,0.00,,,-99.99,,2013-05-18 19:02:00,
2013-05-18 14:12:00,82.0,-99.9,-100.00,ESE,107,9.0,12.0,-999,0.00,,,-99.99,,2013-05-18 19:12:00,
2013-05-18 14:22:00,82.0,-99.9,-100.00,SSE,153,7.0,10.0,-999,0.00,,,-99.99,,2013-05-18 19:22:00,
2013-05-18 14:32:00,83.0,-99.9,-100.00,South,186,7.0,10.0,-999,0.00,,,-99.99,,2013-05-18 19:32:00,
2013-05-18 14:42:00,84.0,-99.9,-100.00,SSE,150,7.0,10.0,-999,0.00,,,-99.99,,2013-05-18 19:42:00,
2013-05-18 14:52:00,84.0,-99.9,-100.00,SSE,150,7.0,10.0,-999,0.00,,,-99.99,,2013-05-18 19:52:00,
2013-05-18 15:02:00,83.0,-99.9,-100.00,SE,143,8.0,12.0,-999,0.00,,,-99.99,,2013-05-18 20:02:00,
2013-05-18 15:12:00,83.0,-99.9,-100.00,SE,143,8.0,12.0,-999,0.00,,,-99.99,,2013-05-18 20:12:00,
2013-05-18 15:22:00,84.0,-99.9,-100.00,SSE,153,8.0,11.0,-999,0.00,,,-99.99,,2013-05-18 20:22:00,
2013-05-18 15:32:00,86.0,-99.9,-100.00,SSE,150,7.0,10.0,-999,0.00,,,-99.99,,2013-05-18 20:32:00,
2013-05-18 15:42:00,86.0,-99.9,-100.00,SSE,150,7.0,10.0,-999,0.00,,,-99.99,,2013-05-18 20:42:00,
2013-05-18 15:52:00,87.0,-99.9,-100.00,SE,132,8.0,13.0,-999,0.00,,,-99.99,,2013-05-18 20:52:00,
2013-05-18 16:01:00,87.0,-99.9,-100.00,SSE,156,9.0,12.0,-999,0.00,,,-99.99,,2013-05-18 21:01:00,
2013-05-18 16:12:00,87.0,-99.9,-100.00,SSE,156,9.0,12.0,-999,0.00,,,-99.99,,2013-05-18 21:12:00,
2013-05-18 16:22:00,87.0,-99.9,-100.00,ESE,118,9.0,14.0,-999,0.00,,,-99.99,,2013-05-18 21:22:00,
2013-05-18 16:33:00,87.0,-99.9,-100.00,SE,138,9.0,13.0,-999,0.00,,,-99.99,,2013-05-18 21:33:00,
2013-05-18 16:44:00,87.0,-99.9,-100.00,SE,138,9.0,13.0,-999,0.00,,,-99.99,,2013-05-18 21:44:00,
2013-05-18 16:53:00,87.0,-99.9,-100.00,SE,134,10.0,16.0,-999,0.00,,,-99.99,,2013-05-18 21:53:00,
2013-05-18 17:03:00,88.0,-99.9,-100.00,SE,134,10.0,15.0,-999,0.00,,,-99.99,,2013-05-18 22:03:00,
2013-05-18 17:13:00,90.0,-99.9,-100.00,SE,125,8.0,12.0,-999,0.00,,,-99.99,,2013-05-18 22:13:00,
2013-05-18 17:23:00,90.0,-99.9,-100.00,SE,125,8.0,12.0,-999,0.00,,,-99.99,,2013-05-18 22:23:00,
2013-05-18 17:33:00,88.0,-99.9,-100.00,SSE,149,9.0,13.0,-999,0.00,,,-99.99,,2013-05-18 22:33:00,
2013-05-18 17:42:00,89.0,-99.9,-100.00,South,170,9.0,15.0,-999,0.00,,,-99.99,,2013-05-18 22:42:00,
2013-05-18 17:53:00,89.0,-99.9,-100.00,South,170,9.0,15.0,-999,0.00,,,-99.99,,2013-05-18 22:53:00,
2013-05-18 18:02:00,88.0,-99.9,-100.00,SE,146,10.0,15.0,-999,0.00,,,-99.99,,2013-05-18 23:02:00,
2013-05-18 18:12:00,88.0,-99.9,-100.00,SE,129,8.0,15.0,-999,0.00,,,-99.99,,2013-05-18 23:12:00,
2013-05-18 18:22:00,88.0,-99.9,-100.00,SE,129,8.0,15.0,-999,0.00,,,-99.99,,2013-05-18 23:22:00,
2013-05-18 18:32:00,87.0,-99.9,-100.00,SE,127,8.0,12.0,-999,0.00,,,-99.99,,2013-05-18 23:32:00,
2013-05-18 18:42:00,87.0,-99.9,-100.00,SE,127,8.0,12.0,-999,0.00,,,-99.99,,2013-05-18 23:42:00,
2013-05-18 18:53:00,88.0,-99.9,-100.00,SE,146,8.0,11.0,-999,0.00,,,-99.99,,2013-05-18 23:53:00,
2013-05-18 19:02:00,87.0,-99.9,-100.00,SE,143,7.0,12.0,-999,0.00,,,-99.99,,2013-05-19 00:02:00,
2013-05-18 19:12:00,87.0,-99.9,-100.00,SE,143,7.0,12.0,-999,0.00,,,-99.99,,2013-05-19 00:12:00,
2013-05-18 19:22:00,86.0,-99.9,-100.00,SE,145,8.0,10.0,-999,0.00,,,-99.99,,2013-05-19 00:22:00,
2013-05-18 19:32:00,84.0,-99.9,-100.00,SE,138,7.0,11.0,-999,0.00,,,-99.99,,2013-05-19 00:32:00,
2013-05-18 19:42:00,84.0,-99.9,-100.00,SE,138,7.0,11.0,-999,0.00,,,-99.99,,2013-05-19 00:42:00,
2013-05-18 19:52:00,83.0,-99.9,-100.00,SE,143,7.0,9.0,-999,0.00,,,-99.99,,2013-05-19 00:52:00,
2013-05-18 20:22:00,81.0,-99.9,-100.00,SSE,162,6.0,9.0,-999,0.00,,,-99.99,,2013-05-19 01:22:00,
2013-05-18 20:32:00,81.0,-99.9,-100.00,SE,138,8.0,11.0,-999,0.00,,,-99.99,,2013-05-19 01:32:00,
2013-05-18 20:42:00,81.0,-99.9,-100.00,SE,138,8.0,11.0,-999,0.00,,,-99.99,,2013-05-19 01:42:00,
2013-05-18 20:52:00,80.0,-99.9,-100.00,SSE,163,6.0,8.0,-999,0.00,,,-99.99,,2013-05-19 01:52:00,
2013-05-18 21:02:00,80.0,-99.9,-100.00,SSE,156,6.0,9.0,-999,0.00,,,-99.99,,2013-05-19 02:02:00,
2013-05-18 21:11:00,80.0,-99.9,-100.00,ESE,117,5.0,9.0,-999,0.00,,,-99.99,,2013-05-19 02:11:00,
2013-05-18 21:22:00,80.0,-99.9,-100.00,ESE,117,5.0,9.0,-999,0.00,,,-99.99,,2013-05-19 02:22:00,
2013-05-18 21:32:00,80.0,-99.9,-100.00,SE,131,7.0,10.0,-999,0.00,,,-99.99,,2013-05-19 02:32:00,
2013-05-18 21:43:00,80.0,-99.9,-100.00,SE,131,7.0,10.0,-999,0.00,,,-99.99,,2013-05-19 02:43:00,
2013-05-18 21:52:00,79.0,-99.9,-100.00,SSE,153,6.0,10.0,-999,0.00,,,-99.99,,2013-05-19 02:52:00,
2013-05-18 22:02:00,79.0,-99.9,-100.00,SE,141,6.0,10.0,-999,0.00,,,-99.99,,2013-05-19 03:02:00,
2013-05-18 22:11:00,80.0,-99.9,-100.00,SSE,149,7.0,12.0,-999,0.00,,,-99.99,,2013-05-19 03:11:00,
2013-05-18 22:22:00,80.0,-99.9,-100.00,SSE,149,7.0,12.0,-999,0.00,,,-99.99,,2013-05-19 03:22:00,
2013-05-18 22:33:00,80.0,-99.9,-100.00,SSE,150,7.0,11.0,-999,0.00,,,-99.99,,2013-05-19 03:33:00,
2013-05-18 22:43:00,80.0,-99.9,-100.00,SSE,150,7.0,11.0,-999,0.00,,,-99.99,,2013-05-19 03:43:00,
2013-05-18 22:54:00,79.0,-99.9,-100.00,SSE,155,6.0,8.0,-999,0.00,,,-99.99,,2013-05-19 03:54:00,
2013-05-18 23:03:00,79.0,-99.9,-100.00,South,173,5.0,7.0,-999,0.00,,,-99.99,,2013-05-19 04:03:00,
2013-05-18 23:13:00,79.0,-99.9,-100.00,South,173,5.0,7.0,-999,0.00,,,-99.99,,2013-05-19 04:13:00,
2013-05-18 23:23:00,79.0,-99.9,-100.00,South,173,5.0,7.0,-999,0.00,,,-99.99,,2013-05-19 04:23:00,
2013-05-18 23:33:00,78.0,-99.9,-100.00,SSE,148,5.0,7.0,-999,0.00,,,-99.99,,2013-05-19 04:33:00,
2013-05-18 23:42:00,78.0,-99.9,-100.00,SSE,148,5.0,7.0,-999,0.00,,,-99.99,,2013-05-19 04:42:00,
2013-05-18 23:53:00,78.0,-99.9,-100.00,SSE,148,5.0,7.0,-999,0.00,,,-99.99,,2013-05-19 04:53:00,